[[{"header":{"parameterUnit":"m.s-1","parameterCategory":1,"la1":30.2991,"la2":30.254,"lo1":-89.0895,"lo2":-89.0444,"dy":0.0017,"dx":0.0017,"nx":28,"ny":28,"refTime":"2024-11-29T09:00:00:Z","depth":0,"parameterNumber":2,"parameterNumberName":"U-component_of_WINDS"},"data":[0,0,0,0,0,0,0,0,0,0,0,0,0,0,0,0,0,0,0,0,0,0,0,0,0,0,0,0,0,0,0,0,0,0,0,0,0,0,0,0,0,0,0,0,0,0,0,0,0,0,0,0,0,0,0,0,0,0,-4.3892,-4.3893,0,-4.3941,-4.3942,-4.3942,-4.3846,-4.3843,-4.3839,-4.3836,-4.389,-4.3894,-4.3898,0,0,0,0,0,0,0,0,0,0,0,0,0,-4.372,-4.3723,-4.3892,-4.3893,-4.3893,-4.3941,-4.3942,-4.3942,-4.3846,-4.3842,-4.3839,-4.3835,-4.3888,-4.3894,-4.3899,0,0,0,0,0,0,0,0,0,0,0,0,0,-4.3784,-4.3725,-4.3892,-4.3851,-4.3848,-4.3941,-4.3942,-4.3943,-4.3847,-4.3842,-4.3837,-4.3833,-4.3887,-4.3893,-4.39,-4.4036,0,0,-4.392,-4.3923,0,0,0,0,0,0,0,0,-4.3781,-4.3791,-4.3857,-4.3854,-4.3851,-4.3882,-4.39,-4.3974,-4.3848,-4.3848,-4.3836,-4.3831,-4.3891,-4.3897,-4.3917,-4.4038,-4.404,-4.392,-4.3924,-4.3927,-4.3929,0,0,0,0,0,0,0,-4.3777,-4.3788,-4.3912,-4.3858,-4.3854,-4.3832,-4.3836,-4.3914,-4.3896,-4.3847,-4.384,-4.3847,-4.3889,-4.3911,-4.3918,-4.4041,-4.392,-4.3926,-4.393,-4.3933,-4.4279,-4.4284,0,0,0,0,0,0,-4.3777,-4.3785,-4.391,-4.3913,-4.3803,-4.3839,-4.3843,-4.3877,-4.3895,-4.3893,-4.3851,-4.3843,-4.3902,-4.391,-4.3919,-4.4082,-4.3927,-4.3933,-4.3937,-4.4274,-4.428,-4.4286,0,0,0,0,0,0,-4.3773,-4.3789,-4.3908,-4.3847,-4.3861,-4.3847,-4.3886,-4.3881,-4.3902,-4.3898,-4.3894,-4.3877,-4.3899,-4.391,-4.4008,-4.4082,-4.3936,-4.3942,-4.4268,-4.4276,-4.4283,-4.4407,0,0,0,0,0,0,-4.3769,-4.3788,-4.3839,-4.3849,-4.3864,-4.3995,-4.389,-4.3885,-4.3914,-4.3903,-4.3921,-4.3919,-4.3896,-4.3998,-4.4014,-4.4088,-4.3947,-4.4261,-4.4271,-4.4281,-4.4396,-4.4418,-4.4436,0,0,0,0,0,-4.3763,-4.3872,-4.3842,-4.3857,-4.3927,-4.3999,-4.4008,-4.3978,-4.392,-4.3972,-4.3969,-4.3919,-4.4071,-4.4009,-4.4026,-4.4104,-4.4256,-4.4269,-4.428,-4.4387,-4.4413,-4.4436,0,0,0,0,0,0,-4.3871,-4.3872,-4.3839,-4.3954,-4.3977,-4.3983,-4.4047,-4.4007,-4.4048,-4.4036,-4.3998,-4.4003,-4.4109,-4.4116,-4.4047,-4.4238,-4.4154,-4.417,-4.4229,-4.4255,-4.4275,-4.4272,-4.3953,0,0,0,0,0,-4.3908,-4.3965,-4.3964,-4.4066,-4.4079,-4.4061,-4.4092,-4.4066,-4.4089,-4.4099,-4.4103,-4.4129,-4.4182,-4.4219,-4.4267,-4.4396,-4.44,-4.4458,-4.4478,-4.4495,-4.4509,-4.458,-4.4607,-4.4325,-4.4325,-4.4325,0,0,-4.3985,-4.3993,-4.4032,-4.4087,-4.4102,-4.4165,-4.407,-4.4139,-4.4186,-4.411,-4.4203,-4.4207,-4.4233,-4.4348,-4.4398,-4.4356,-4.4588,-4.451,-4.4523,-4.4529,-4.4595,-4.4622,-4.4646,-4.4333,-4.4332,-4.433,0,0,-4.4159,-4.4169,-4.4256,-4.4273,-4.4297,-4.4285,-4.4306,-4.4318,-4.4318,-4.4411,-4.4356,-4.4411,-4.4503,-4.4525,-4.4548,-4.4731,-4.4688,-4.4748,-4.4855,-4.4925,-4.4947,-4.4966,-4.5034,-4.5058,-4.4762,-4.4763,-4.4763,0,-4.4252,-4.4342,-4.4306,-4.438,-4.4407,-4.434,-4.4429,-4.4448,-4.4488,-4.4509,-4.4461,-4.4577,-4.459,-4.4709,-4.4754,-4.4774,-4.4799,-4.4747,-4.4946,-4.4965,-4.4983,-4.5047,-4.5073,-4.477,-4.4769,-4.4769,-4.4768,0,-4.4457,-4.4521,-4.4588,-4.4628,-4.4662,-4.4743,-4.4721,-4.4761,-4.4733,-4.4726,-4.4823,-4.4836,-4.4887,-4.4913,-4.4887,-4.5031,-4.5004,-4.4952,-4.4868,-4.5018,-4.5078,-4.5102,-4.4781,-4.4778,-4.4776,-4.4774,0,0,-4.47,-4.4719,-4.4745,-4.4763,-4.4785,-4.4834,-4.4913,-4.4962,-4.4998,-4.5028,-4.5095,-4.5175,-4.5128,-4.5154,-4.5129,-4.519,-4.5338,-4.5131,-4.5131,-4.5171,-4.55,-4.554,-4.5569,-4.5308,-4.5313,-4.5316,-4.5498,0,-4.4873,-4.5008,-4.4979,-4.5112,-4.5172,-4.511,-4.5179,-4.5201,-4.5198,-4.5249,-4.5245,-4.5304,-4.5235,-4.5251,-4.5309,-4.5308,-4.5404,-4.5294,-4.5372,-4.5376,-4.537,-4.56,-4.5642,-4.5814,-4.5521,-4.5525,-4.5528,0,-4.5093,-4.5131,-4.5271,-4.5285,-4.5309,-4.5371,-4.5416,-4.5464,-4.5489,-4.5482,-4.5513,-4.5477,-4.5558,-4.5471,-4.5583,-4.5509,-4.554,-4.5544,-4.555,-4.5558,-4.5462,-4.5616,-4.5867,-4.5894,-4.5564,-4.5561,-4.5558,0,-4.5259,-4.5345,-4.544,-4.5457,-4.5475,-4.5521,-4.5531,-4.5551,-4.5584,-4.5623,-4.5644,-4.5692,-4.5719,-4.5758,-4.5737,-4.5676,-4.5854,-4.5765,-4.5853,-4.5854,-4.5894,-4.5892,-4.6156,-4.5911,-4.591,-4.591,-4.5909,0,-4.5457,-4.5545,-4.5515,-4.5574,-4.5672,-4.5638,-4.5736,-4.5739,-4.5757,-4.5817,-4.5766,-4.5824,-4.5792,-4.5847,-4.5831,-4.5928,-4.594,-4.5938,-4.5934,-4.5944,-4.5945,-4.5965,-4.5953,-4.5917,-4.5915,-4.5914,-4.5913,0,-4.5659,-4.5642,-4.5742,-4.5752,-4.5756,-4.5828,-4.5837,-4.5893,-4.5885,-4.5962,-4.5978,-4.5967,-4.603,-4.6012,-4.6081,-4.607,-4.6193,-4.6172,-4.6185,-4.618,-4.627,-4.6262,-4.6557,-4.6595,-4.6323,-4.6326,-4.6328,0,-4.5788,-4.5854,-4.5871,-4.5907,-4.5921,-4.5979,-4.6012,-4.5981,-4.6018,-4.6052,-4.6105,-4.6163,-4.6208,-4.6312,-4.6311,-4.6364,-4.6345,-4.6445,-4.6353,-4.6362,-4.635,-4.6347,-4.6355,-4.6464,-4.6467,-4.6469,-4.6472,0,-4.6018,-4.6006,-4.6055,-4.6102,-4.6143,-4.6178,-4.6209,-4.6242,-4.6214,-4.6258,-4.6321,-4.6356,-4.6426,-4.6486,-4.6535,-4.6546,-4.6506,-4.65,-4.6524,-4.6536,-4.6542,-4.6542,-4.6237,-4.6494,-4.6492,-4.649,-4.6489,-4.6488,-4.6188,-4.6245,-4.6267,-4.6323,-4.6343,-4.6374,-4.6428,-4.6427,-4.6479,-4.6533,-4.6512,-4.6586,-4.6611,-4.6672,-4.669,-4.6748,-4.6711,-4.6744,-4.6753,-4.6762,-4.6775,-4.6531,-4.6757,-4.6756,-4.6756,-4.6755,-4.6754,0,-4.6418,-4.6429,-4.6481,-4.6526,-4.6572,-4.6527,-4.656,-4.6602,-4.6666,-4.6693,-4.6738,-4.6813,-4.687,-4.6875,-4.6929,-4.6976,-4.6959,-4.6991,-4.6989,-4.6993,-4.6804,-4.6779,-4.7004,-4.7004,-4.7004,-4.7004,-4.7004,-4.7004,-4.6543,-4.6638,-4.6629,-4.6735,-4.6745,-4.6816,-4.6839,-4.6868,-4.6888,-4.6973,-4.7021,-4.7023,-4.7041,-4.7097,-4.7149,-4.7149,-4.7173,-4.7213,-4.7207,-4.703,-4.7006,-4.6982,-4.6959,-4.7218,-4.7218,-4.7391,-4.7392,-4.7394]},{"header":{"parameterUnit":"m.s-1","parameterCategory":1,"la1":30.2991,"la2":30.254,"lo1":-89.0895,"lo2":-89.0444,"dy":0.0017,"dx":0.0017,"nx":28,"ny":28,"refTime":"2024-11-29T09:00:00:Z","depth":0,"parameterNumber":3,"parameterNumberName":"V-component_of_WINDS"},"data":[0,0,0,0,0,0,0,0,0,0,0,0,0,0,0,0,0,0,0,0,0,0,0,0,0,0,0,0,0,0,0,0,0,0,0,0,0,0,0,0,0,0,0,0,0,0,0,0,0,0,0,0,0,0,0,0,0,0,-1.4141,-1.4141,0,-1.4171,-1.4172,-1.4172,-1.4152,-1.4151,-1.415,-1.4149,-1.4181,-1.4182,-1.4184,0,0,0,0,0,0,0,0,0,0,0,0,0,-1.4063,-1.4065,-1.4141,-1.4141,-1.4141,-1.4171,-1.4172,-1.4172,-1.4152,-1.4151,-1.4149,-1.4148,-1.418,-1.4182,-1.4184,0,0,0,0,0,0,0,0,0,0,0,0,0,-1.4096,-1.4065,-1.4141,-1.4135,-1.4135,-1.4171,-1.4172,-1.4172,-1.4152,-1.4151,-1.4149,-1.4148,-1.4179,-1.4182,-1.4185,-1.4229,0,0,-1.4192,-1.4194,0,0,0,0,0,0,0,0,-1.4094,-1.4099,-1.4135,-1.4135,-1.4135,-1.4156,-1.4156,-1.4191,-1.4152,-1.4145,-1.4149,-1.4147,-1.4174,-1.4177,-1.4186,-1.423,-1.4232,-1.4193,-1.4194,-1.4195,-1.4196,0,0,0,0,0,0,0,-1.4092,-1.4097,-1.4153,-1.4136,-1.4136,-1.413,-1.4133,-1.4163,-1.4167,-1.4146,-1.4144,-1.4148,-1.4173,-1.4183,-1.4186,-1.4232,-1.4193,-1.4195,-1.4196,-1.4197,-1.4314,-1.4315,0,0,0,0,0,0,-1.409,-1.4095,-1.4152,-1.4154,-1.4111,-1.4133,-1.4136,-1.4151,-1.4167,-1.4168,-1.415,-1.4147,-1.4179,-1.4183,-1.4187,-1.424,-1.4195,-1.4198,-1.4199,-1.4312,-1.4314,-1.4316,0,0,0,0,0,0,-1.4088,-1.4095,-1.4151,-1.4124,-1.4131,-1.4136,-1.4152,-1.4152,-1.4162,-1.4169,-1.417,-1.4159,-1.4178,-1.4184,-1.4218,-1.4241,-1.4199,-1.4201,-1.431,-1.4313,-1.4315,-1.4345,0,0,0,0,0,0,-1.4086,-1.4095,-1.4112,-1.4125,-1.4132,-1.4182,-1.4154,-1.4154,-1.4166,-1.4164,-1.4178,-1.4179,-1.4178,-1.4215,-1.4221,-1.4243,-1.4203,-1.4308,-1.4311,-1.4314,-1.4342,-1.4348,-1.4354,0,0,0,0,0,-1.4084,-1.4119,-1.4113,-1.412,-1.4154,-1.4183,-1.4187,-1.4185,-1.4168,-1.4185,-1.419,-1.4179,-1.4237,-1.4218,-1.4225,-1.4249,-1.4307,-1.4311,-1.4314,-1.434,-1.4347,-1.4353,0,0,0,0,0,0,-1.4109,-1.4121,-1.4114,-1.4155,-1.4168,-1.4179,-1.4201,-1.4192,-1.4211,-1.4207,-1.4203,-1.4207,-1.4243,-1.4249,-1.4228,-1.4292,-1.4269,-1.4274,-1.4287,-1.4294,-1.4299,-1.4297,-1.4205,0,0,0,0,0,-1.412,-1.4143,-1.4151,-1.4187,-1.4194,-1.4196,-1.4209,-1.4205,-1.4219,-1.4224,-1.4232,-1.4245,-1.4266,-1.428,-1.43,-1.4343,-1.4346,-1.4362,-1.4368,-1.4372,-1.4377,-1.4399,-1.4407,-1.4327,-1.4327,-1.4327,0,0,-1.4142,-1.4151,-1.4166,-1.4192,-1.4202,-1.4225,-1.4201,-1.4227,-1.4244,-1.4228,-1.4262,-1.4267,-1.4282,-1.4321,-1.4338,-1.4327,-1.4399,-1.4377,-1.438,-1.4383,-1.4404,-1.4411,-1.4418,-1.4329,-1.4329,-1.4329,0,0,-1.4194,-1.4203,-1.4233,-1.4243,-1.4258,-1.4259,-1.4267,-1.4279,-1.4282,-1.4315,-1.4304,-1.4324,-1.436,-1.4371,-1.4381,-1.4436,-1.4426,-1.4443,-1.4472,-1.4494,-1.45,-1.4506,-1.4525,-1.4532,-1.4447,-1.4447,-1.4447,0,-1.4219,-1.4254,-1.425,-1.4277,-1.4289,-1.4275,-1.4305,-1.4315,-1.4335,-1.4344,-1.4331,-1.4376,-1.4385,-1.4426,-1.4439,-1.4448,-1.4456,-1.4441,-1.45,-1.4505,-1.451,-1.4529,-1.4536,-1.4449,-1.4449,-1.4448,-1.4448,0,-1.4285,-1.4309,-1.4331,-1.4351,-1.4366,-1.4394,-1.4394,-1.4409,-1.4404,-1.4406,-1.444,-1.445,-1.4471,-1.448,-1.4476,-1.4521,-1.4513,-1.45,-1.4477,-1.452,-1.4537,-1.4544,-1.4452,-1.4451,-1.445,-1.445,0,0,-1.4355,-1.4371,-1.438,-1.4388,-1.4403,-1.4422,-1.4449,-1.4469,-1.4482,-1.4496,-1.4519,-1.455,-1.4538,-1.4549,-1.4546,-1.4565,-1.4607,-1.4549,-1.455,-1.456,-1.4656,-1.4666,-1.4675,-1.4601,-1.4602,-1.4603,-1.4655,0,-1.4408,-1.4455,-1.4452,-1.4497,-1.4519,-1.4505,-1.4529,-1.4541,-1.4543,-1.4562,-1.4565,-1.4587,-1.4569,-1.4576,-1.4594,-1.4598,-1.4627,-1.4594,-1.4622,-1.4623,-1.4619,-1.4684,-1.4694,-1.4743,-1.4662,-1.4663,-1.4664,0,-1.4476,-1.4492,-1.4539,-1.455,-1.4559,-1.4581,-1.4599,-1.4617,-1.4629,-1.463,-1.4642,-1.4635,-1.4662,-1.4638,-1.4676,-1.4654,-1.4664,-1.4668,-1.467,-1.4673,-1.4646,-1.4688,-1.4759,-1.4766,-1.4674,-1.4673,-1.4673,0,-1.4522,-1.4556,-1.4588,-1.4596,-1.4609,-1.4624,-1.4631,-1.4642,-1.4654,-1.467,-1.4677,-1.4696,-1.4707,-1.4721,-1.4719,-1.4702,-1.4757,-1.4733,-1.4758,-1.4758,-1.4771,-1.477,-1.4844,-1.4777,-1.4777,-1.4777,-1.4777,0,-1.4581,-1.4611,-1.4609,-1.4629,-1.4661,-1.4657,-1.4689,-1.4693,-1.4703,-1.4723,-1.4712,-1.4731,-1.4728,-1.4747,-1.4745,-1.4776,-1.4781,-1.4782,-1.4781,-1.4783,-1.4783,-1.479,-1.4787,-1.4779,-1.4779,-1.4778,-1.4778,0,-1.4639,-1.4639,-1.4673,-1.4683,-1.4686,-1.4709,-1.4717,-1.4736,-1.4737,-1.4763,-1.4768,-1.4771,-1.4793,-1.4792,-1.4817,-1.4816,-1.4854,-1.4849,-1.4849,-1.4849,-1.4874,-1.4871,-1.4955,-1.4966,-1.4892,-1.4893,-1.4893,0,-1.4677,-1.4699,-1.4711,-1.4724,-1.4731,-1.4751,-1.4764,-1.476,-1.4773,-1.4788,-1.4805,-1.4825,-1.4842,-1.4877,-1.4881,-1.49,-1.4896,-1.4924,-1.4898,-1.4899,-1.4896,-1.4895,-1.4897,-1.4929,-1.493,-1.493,-1.4931,0,-1.4745,-1.4743,-1.4761,-1.4779,-1.4794,-1.4808,-1.4821,-1.4832,-1.4829,-1.4845,-1.4867,-1.4879,-1.4904,-1.4925,-1.4943,-1.4949,-1.4939,-1.4939,-1.4945,-1.4948,-1.4947,-1.4948,-1.4863,-1.4937,-1.4936,-1.4936,-1.4935,-1.4935,-1.4793,-1.4812,-1.4823,-1.4844,-1.4853,-1.4865,-1.4882,-1.4886,-1.4904,-1.4924,-1.492,-1.4945,-1.4956,-1.4978,-1.4986,-1.5005,-1.4995,-1.5005,-1.5007,-1.501,-1.5013,-1.4944,-1.5008,-1.5008,-1.5008,-1.5008,-1.5008,0,-1.486,-1.4866,-1.4885,-1.4903,-1.4919,-1.4908,-1.4922,-1.4936,-1.4957,-1.4968,-1.4984,-1.5009,-1.5029,-1.5034,-1.5053,-1.5067,-1.5063,-1.5072,-1.5071,-1.5072,-1.5021,-1.5013,-1.5075,-1.5075,-1.5075,-1.5075,-1.5075,-1.5075,-1.4897,-1.4928,-1.4928,-1.4963,-1.4969,-1.4993,-1.5001,-1.5012,-1.5021,-1.5049,-1.5065,-1.5068,-1.5076,-1.5095,-1.5113,-1.5114,-1.5121,-1.5132,-1.5131,-1.5083,-1.5076,-1.507,-1.5062,-1.5134,-1.5134,-1.5181,-1.5182,-1.5182]}]]